owner,sensor,date,latitude,longitude,sea_surface_height_above_sea_level,qcFlag 
TCOON,ioos:station:TCOON:518:1,2017-11-01T00:18:00Z,29.5150,-94.5133,1.322,1111122 
TCOON,ioos:station:TCOON:518:1,2017-11-01T01:18:00Z,29.5150,-94.5133,1.3,1111122 
TCOON,ioos:station:TCOON:518:1,2017-11-01T02:18:00Z,29.5150,-94.5133,1.291,1111122 
TCOON,ioos:station:TCOON:518:1,2017-11-01T03:24:00Z,29.5150,-94.5133,1.259,1111122 
TCOON,ioos:station:TCOON:518:1,2017-11-01T04:18:00Z,29.5150,-94.5133,1.232,1111122 
TCOON,ioos:station:TCOON:518:1,2017-11-01T05:18:00Z,29.5150,-94.5133,1.263,1111122 
TCOON,ioos:station:TCOON:518:1,2017-11-01T06:18:00Z,29.5150,-94.5133,1.301,1111122 
TCOON,ioos:station:TCOON:518:1,2017-11-01T07:18:00Z,29.5150,-94.5133,1.343,1111122 
TCOON,ioos:station:TCOON:518:1,2017-11-01T08:18:00Z,29.5150,-94.5133,1.4,1111122 
TCOON,ioos:station:TCOON:518:1,2017-11-01T09:18:00Z,29.5150,-94.5133,1.432,1111122 
TCOON,ioos:station:TCOON:518:1,2017-11-01T10:18:00Z,29.5150,-94.5133,1.487,1111122 
TCOON,ioos:station:TCOON:518:1,2017-11-01T11:18:00Z,29.5150,-94.5133,1.446,1111122 
TCOON,ioos:station:TCOON:518:1,2017-11-01T12:18:00Z,29.5150,-94.5133,1.414,1111122 
TCOON,ioos:station:TCOON:518:1,2017-11-01T13:18:00Z,29.5150,-94.5133,1.56,1111122 
TCOON,ioos:station:TCOON:518:1,2017-11-01T14:18:00Z,29.5150,-94.5133,1.603,1111122 
TCOON,ioos:station:TCOON:518:1,2017-11-01T15:18:00Z,29.5150,-94.5133,1.562,1111122 
TCOON,ioos:station:TCOON:518:1,2017-11-01T16:18:00Z,29.5150,-94.5133,1.49,1111122 
TCOON,ioos:station:TCOON:518:1,2017-11-01T17:18:00Z,29.5150,-94.5133,1.448,1111122 
TCOON,ioos:station:TCOON:518:1,2017-11-01T18:18:00Z,29.5150,-94.5133,1.374,1111122 
TCOON,ioos:station:TCOON:518:1,2017-11-01T19:18:00Z,29.5150,-94.5133,1.377,1111122 
TCOON,ioos:station:TCOON:518:1,2017-11-01T20:18:00Z,29.5150,-94.5133,1.44,1111122 
TCOON,ioos:station:TCOON:518:1,2017-11-01T21:18:00Z,29.5150,-94.5133,1.508,1111122 
TCOON,ioos:station:TCOON:518:1,2017-11-01T22:18:00Z,29.5150,-94.5133,1.536,1111122 
TCOON,ioos:station:TCOON:518:1,2017-11-01T23:18:00Z,29.5150,-94.5133,1.536,1111122 
TCOON,ioos:station:TCOON:518:1,2017-11-02T00:18:00Z,29.5150,-94.5133,1.529,1111122 
TCOON,ioos:station:TCOON:518:1,2017-11-02T01:18:00Z,29.5150,-94.5133,1.5,1111122 
TCOON,ioos:station:TCOON:518:1,2017-11-02T02:18:00Z,29.5150,-94.5133,1.441,1111122 
TCOON,ioos:station:TCOON:518:1,2017-11-02T03:18:00Z,29.5150,-94.5133,1.43,1111122 
TCOON,ioos:station:TCOON:518:1,2017-11-02T04:18:00Z,29.5150,-94.5133,1.441,1111122 
TCOON,ioos:station:TCOON:518:1,2017-11-02T05:18:00Z,29.5150,-94.5133,1.414,1111122 
TCOON,ioos:station:TCOON:518:1,2017-11-02T06:18:00Z,29.5150,-94.5133,1.424,1111122 
TCOON,ioos:station:TCOON:518:1,2017-11-02T07:18:00Z,29.5150,-94.5133,1.435,1111122 
TCOON,ioos:station:TCOON:518:1,2017-11-02T08:18:00Z,29.5150,-94.5133,1.523,1111122 
TCOON,ioos:station:TCOON:518:1,2017-11-02T09:18:00Z,29.5150,-94.5133,1.555,1111122 
TCOON,ioos:station:TCOON:518:1,2017-11-02T10:18:00Z,29.5150,-94.5133,1.546,1111122 
TCOON,ioos:station:TCOON:518:1,2017-11-02T11:18:00Z,29.5150,-94.5133,1.56,1111122 
TCOON,ioos:station:TCOON:518:1,2017-11-02T12:18:00Z,29.5150,-94.5133,1.566,1111122 
TCOON,ioos:station:TCOON:518:1,2017-11-02T13:18:00Z,29.5150,-94.5133,1.527,1111122 
TCOON,ioos:station:TCOON:518:1,2017-11-02T14:18:00Z,29.5150,-94.5133,1.482,1111122 
TCOON,ioos:station:TCOON:518:1,2017-11-02T15:18:00Z,29.5150,-94.5133,1.442,1111122 
TCOON,ioos:station:TCOON:518:1,2017-11-02T16:18:00Z,29.5150,-94.5133,1.392,1111122 
TCOON,ioos:station:TCOON:518:1,2017-11-02T17:18:00Z,29.5150,-94.5133,1.364,1111122 
TCOON,ioos:station:TCOON:518:1,2017-11-02T18:18:00Z,29.5150,-94.5133,1.36,1111122 
TCOON,ioos:station:TCOON:518:1,2017-11-02T19:18:00Z,29.5150,-94.5133,1.394,1111122 
TCOON,ioos:station:TCOON:518:1,2017-11-02T20:18:00Z,29.5150,-94.5133,1.476,1111122 
TCOON,ioos:station:TCOON:518:1,2017-11-02T21:18:00Z,29.5150,-94.5133,1.55,1111122 
TCOON,ioos:station:TCOON:518:1,2017-11-02T22:18:00Z,29.5150,-94.5133,1.574,1111122 
TCOON,ioos:station:TCOON:518:1,2017-11-02T23:18:00Z,29.5150,-94.5133,1.604,1111122 
TCOON,ioos:station:TCOON:518:1,2017-11-03T00:18:00Z,29.5150,-94.5133,1.613,1111122 
TCOON,ioos:station:TCOON:518:1,2017-11-03T01:18:00Z,29.5150,-94.5133,1.611,1111122 
TCOON,ioos:station:TCOON:518:1,2017-11-03T02:18:00Z,29.5150,-94.5133,1.596,1111122 
TCOON,ioos:station:TCOON:518:1,2017-11-03T03:18:00Z,29.5150,-94.5133,1.57,1111122 
TCOON,ioos:station:TCOON:518:1,2017-11-03T04:24:00Z,29.5150,-94.5133,1.51,1111122 
TCOON,ioos:station:TCOON:518:1,2017-11-03T05:18:00Z,29.5150,-94.5133,1.483,1111122 
TCOON,ioos:station:TCOON:518:1,2017-11-03T06:18:00Z,29.5150,-94.5133,1.434,1111122 
TCOON,ioos:station:TCOON:518:1,2017-11-03T07:18:00Z,29.5150,-94.5133,1.422,1111122 
TCOON,ioos:station:TCOON:518:1,2017-11-03T08:18:00Z,29.5150,-94.5133,1.434,1111122 
TCOON,ioos:station:TCOON:518:1,2017-11-03T09:18:00Z,29.5150,-94.5133,1.481,1111122 
TCOON,ioos:station:TCOON:518:1,2017-11-03T10:18:00Z,29.5150,-94.5133,1.51,1111122 
TCOON,ioos:station:TCOON:518:1,2017-11-03T11:18:00Z,29.5150,-94.5133,1.515,1111122 
TCOON,ioos:station:TCOON:518:1,2017-11-03T12:18:00Z,29.5150,-94.5133,1.445,1111122 
TCOON,ioos:station:TCOON:518:1,2017-11-03T13:18:00Z,29.5150,-94.5133,1.414,1111122 
TCOON,ioos:station:TCOON:518:1,2017-11-03T14:18:00Z,29.5150,-94.5133,1.341,1111122 
TCOON,ioos:station:TCOON:518:1,2017-11-03T15:18:00Z,29.5150,-94.5133,1.314,1111122 
TCOON,ioos:station:TCOON:518:1,2017-11-03T16:18:00Z,29.5150,-94.5133,1.233,1111122 
TCOON,ioos:station:TCOON:518:1,2017-11-03T17:18:00Z,29.5150,-94.5133,1.226,1111122 
TCOON,ioos:station:TCOON:518:1,2017-11-03T18:18:00Z,29.5150,-94.5133,1.223,1111122 
TCOON,ioos:station:TCOON:518:1,2017-11-03T19:18:00Z,29.5150,-94.5133,1.239,1111122 
TCOON,ioos:station:TCOON:518:1,2017-11-03T20:18:00Z,29.5150,-94.5133,1.335,1111122 
TCOON,ioos:station:TCOON:518:1,2017-11-03T21:18:00Z,29.5150,-94.5133,1.426,1111122 
TCOON,ioos:station:TCOON:518:1,2017-11-03T22:18:00Z,29.5150,-94.5133,1.5,1111122 
TCOON,ioos:station:TCOON:518:1,2017-11-03T23:24:00Z,29.5150,-94.5133,1.543,1111122 
TCOON,ioos:station:TCOON:518:1,2017-11-04T00:24:00Z,29.5150,-94.5133,1.584,1111122 
TCOON,ioos:station:TCOON:518:1,2017-11-04T01:30:00Z,29.5150,-94.5133,1.604,1111122 
TCOON,ioos:station:TCOON:518:1,2017-11-04T02:18:00Z,29.5150,-94.5133,1.601,1111122 
TCOON,ioos:station:TCOON:518:1,2017-11-04T03:18:00Z,29.5150,-94.5133,1.58,1111122 
TCOON,ioos:station:TCOON:518:1,2017-11-04T04:18:00Z,29.5150,-94.5133,1.534,1111122 
TCOON,ioos:station:TCOON:518:1,2017-11-04T05:18:00Z,29.5150,-94.5133,1.512,1111122 
TCOON,ioos:station:TCOON:518:1,2017-11-04T06:18:00Z,29.5150,-94.5133,1.484,1111122 
TCOON,ioos:station:TCOON:518:1,2017-11-04T07:18:00Z,29.5150,-94.5133,1.474,1111122 
TCOON,ioos:station:TCOON:518:1,2017-11-04T08:18:00Z,29.5150,-94.5133,1.452,1111122 
TCOON,ioos:station:TCOON:518:1,2017-11-04T09:18:00Z,29.5150,-94.5133,1.493,1111122 
TCOON,ioos:station:TCOON:518:1,2017-11-04T10:18:00Z,29.5150,-94.5133,1.506,1111122 
TCOON,ioos:station:TCOON:518:1,2017-11-04T11:18:00Z,29.5150,-94.5133,1.511,1111122 
TCOON,ioos:station:TCOON:518:1,2017-11-04T12:18:00Z,29.5150,-94.5133,1.491,1111122 
TCOON,ioos:station:TCOON:518:1,2017-11-04T13:18:00Z,29.5150,-94.5133,1.439,1111122 
TCOON,ioos:station:TCOON:518:1,2017-11-04T14:18:00Z,29.5150,-94.5133,1.339,1111122 
TCOON,ioos:station:TCOON:518:1,2017-11-04T15:18:00Z,29.5150,-94.5133,1.259,1111122 
TCOON,ioos:station:TCOON:518:1,2017-11-04T16:18:00Z,29.5150,-94.5133,1.189,1111122 
TCOON,ioos:station:TCOON:518:1,2017-11-04T17:18:00Z,29.5150,-94.5133,1.165,1111122 
TCOON,ioos:station:TCOON:518:1,2017-11-04T18:18:00Z,29.5150,-94.5133,1.149,1111122 
TCOON,ioos:station:TCOON:518:1,2017-11-04T19:18:00Z,29.5150,-94.5133,1.144,1111122 
TCOON,ioos:station:TCOON:518:1,2017-11-04T20:18:00Z,29.5150,-94.5133,1.182,1111122 
TCOON,ioos:station:TCOON:518:1,2017-11-04T21:18:00Z,29.5150,-94.5133,1.29,1111122 
TCOON,ioos:station:TCOON:518:1,2017-11-04T22:18:00Z,29.5150,-94.5133,1.361,1111122 
TCOON,ioos:station:TCOON:518:1,2017-11-04T23:18:00Z,29.5150,-94.5133,1.489,1111122 
TCOON,ioos:station:TCOON:518:1,2017-11-05T00:18:00Z,29.5150,-94.5133,1.547,1111122 
TCOON,ioos:station:TCOON:518:1,2017-11-05T01:18:00Z,29.5150,-94.5133,1.587,1111122 
TCOON,ioos:station:TCOON:518:1,2017-11-05T02:18:00Z,29.5150,-94.5133,1.611,1111122 
TCOON,ioos:station:TCOON:518:1,2017-11-05T03:18:00Z,29.5150,-94.5133,1.615,1111122 
TCOON,ioos:station:TCOON:518:1,2017-11-05T04:18:00Z,29.5150,-94.5133,1.61,1111122 
TCOON,ioos:station:TCOON:518:1,2017-11-05T05:18:00Z,29.5150,-94.5133,1.61,1111122 
TCOON,ioos:station:TCOON:518:1,2017-11-05T06:18:00Z,29.5150,-94.5133,1.623,1111122 
TCOON,ioos:station:TCOON:518:1,2017-11-05T07:18:00Z,29.5150,-94.5133,1.571,1111122 
TCOON,ioos:station:TCOON:518:1,2017-11-05T08:18:00Z,29.5150,-94.5133,1.601,1111122 
TCOON,ioos:station:TCOON:518:1,2017-11-05T09:18:00Z,29.5150,-94.5133,1.591,1111122 
TCOON,ioos:station:TCOON:518:1,2017-11-05T10:18:00Z,29.5150,-94.5133,1.579,1111122 
TCOON,ioos:station:TCOON:518:1,2017-11-05T11:24:00Z,29.5150,-94.5133,1.591,1111122 
TCOON,ioos:station:TCOON:518:1,2017-11-05T12:18:00Z,29.5150,-94.5133,1.602,1111122 
TCOON,ioos:station:TCOON:518:1,2017-11-05T13:18:00Z,29.5150,-94.5133,1.534,1111122 
TCOON,ioos:station:TCOON:518:1,2017-11-05T14:18:00Z,29.5150,-94.5133,1.479,1111122 
TCOON,ioos:station:TCOON:518:1,2017-11-05T15:18:00Z,29.5150,-94.5133,1.391,1111122 
TCOON,ioos:station:TCOON:518:1,2017-11-05T16:18:00Z,29.5150,-94.5133,1.325,1111122 
TCOON,ioos:station:TCOON:518:1,2017-11-05T17:18:00Z,29.5150,-94.5133,1.281,1111122 
TCOON,ioos:station:TCOON:518:1,2017-11-05T18:18:00Z,29.5150,-94.5133,1.237,1111122 
TCOON,ioos:station:TCOON:518:1,2017-11-05T19:18:00Z,29.5150,-94.5133,1.209,1111122 
TCOON,ioos:station:TCOON:518:1,2017-11-05T20:18:00Z,29.5150,-94.5133,1.2,1111122 
TCOON,ioos:station:TCOON:518:1,2017-11-05T21:18:00Z,29.5150,-94.5133,1.218,1111122 
TCOON,ioos:station:TCOON:518:1,2017-11-05T22:18:00Z,29.5150,-94.5133,1.316,1111122 
TCOON,ioos:station:TCOON:518:1,2017-11-05T23:18:00Z,29.5150,-94.5133,1.443,1111122 
TCOON,ioos:station:TCOON:518:1,2017-11-06T00:18:00Z,29.5150,-94.5133,1.516,1111122 
TCOON,ioos:station:TCOON:518:1,2017-11-06T01:18:00Z,29.5150,-94.5133,1.578,1111122 
TCOON,ioos:station:TCOON:518:1,2017-11-06T02:18:00Z,29.5150,-94.5133,1.629,1111122 
TCOON,ioos:station:TCOON:518:1,2017-11-06T03:18:00Z,29.5150,-94.5133,1.661,1111122 
TCOON,ioos:station:TCOON:518:1,2017-11-06T04:18:00Z,29.5150,-94.5133,1.666,1111122 
TCOON,ioos:station:TCOON:518:1,2017-11-06T05:18:00Z,29.5150,-94.5133,1.652,1111122 
TCOON,ioos:station:TCOON:518:1,2017-11-06T06:18:00Z,29.5150,-94.5133,1.653,1111122 
TCOON,ioos:station:TCOON:518:1,2017-11-06T07:18:00Z,29.5150,-94.5133,1.662,1111122 
TCOON,ioos:station:TCOON:518:1,2017-11-06T08:18:00Z,29.5150,-94.5133,1.645,1111122 
TCOON,ioos:station:TCOON:518:1,2017-11-06T09:18:00Z,29.5150,-94.5133,1.654,1111122 
TCOON,ioos:station:TCOON:518:1,2017-11-06T10:18:00Z,29.5150,-94.5133,1.653,1111122 
TCOON,ioos:station:TCOON:518:1,2017-11-06T11:18:00Z,29.5150,-94.5133,1.648,1111122 
TCOON,ioos:station:TCOON:518:1,2017-11-06T12:18:00Z,29.5150,-94.5133,1.641,1111122 
TCOON,ioos:station:TCOON:518:1,2017-11-06T13:18:00Z,29.5150,-94.5133,1.565,1111122 
TCOON,ioos:station:TCOON:518:1,2017-11-06T14:18:00Z,29.5150,-94.5133,1.451,1111122 
TCOON,ioos:station:TCOON:518:1,2017-11-06T15:18:00Z,29.5150,-94.5133,1.37,1111122 
TCOON,ioos:station:TCOON:518:1,2017-11-06T16:18:00Z,29.5150,-94.5133,1.327,1111122 
TCOON,ioos:station:TCOON:518:1,2017-11-06T17:18:00Z,29.5150,-94.5133,1.261,1111122 
TCOON,ioos:station:TCOON:518:1,2017-11-06T18:18:00Z,29.5150,-94.5133,1.219,1111122 
TCOON,ioos:station:TCOON:518:1,2017-11-06T19:18:00Z,29.5150,-94.5133,1.166,1111122 
TCOON,ioos:station:TCOON:518:1,2017-11-06T20:18:00Z,29.5150,-94.5133,1.139,1111122 
TCOON,ioos:station:TCOON:518:1,2017-11-06T21:18:00Z,29.5150,-94.5133,1.124,1111122 
TCOON,ioos:station:TCOON:518:1,2017-11-06T22:18:00Z,29.5150,-94.5133,1.176,1111122 
TCOON,ioos:station:TCOON:518:1,2017-11-06T23:18:00Z,29.5150,-94.5133,1.276,1111122 
TCOON,ioos:station:TCOON:518:1,2017-11-07T00:18:00Z,29.5150,-94.5133,1.389,1111122 
TCOON,ioos:station:TCOON:518:1,2017-11-07T01:18:00Z,29.5150,-94.5133,1.466,1111122 
TCOON,ioos:station:TCOON:518:1,2017-11-07T02:18:00Z,29.5150,-94.5133,1.524,1111122 
TCOON,ioos:station:TCOON:518:1,2017-11-07T03:18:00Z,29.5150,-94.5133,1.546,1111122 
TCOON,ioos:station:TCOON:518:1,2017-11-07T04:18:00Z,29.5150,-94.5133,1.562,1111122 
TCOON,ioos:station:TCOON:518:1,2017-11-07T05:18:00Z,29.5150,-94.5133,1.563,1111122 
TCOON,ioos:station:TCOON:518:1,2017-11-07T06:18:00Z,29.5150,-94.5133,1.57,1111122 
TCOON,ioos:station:TCOON:518:1,2017-11-07T07:18:00Z,29.5150,-94.5133,1.579,1111122 
TCOON,ioos:station:TCOON:518:1,2017-11-07T08:18:00Z,29.5150,-94.5133,1.603,1111122 
TCOON,ioos:station:TCOON:518:1,2017-11-07T09:18:00Z,29.5150,-94.5133,1.613,1111122 
TCOON,ioos:station:TCOON:518:1,2017-11-07T10:18:00Z,29.5150,-94.5133,1.59,1111122 
TCOON,ioos:station:TCOON:518:1,2017-11-07T11:18:00Z,29.5150,-94.5133,1.592,1111122 
TCOON,ioos:station:TCOON:518:1,2017-11-07T12:18:00Z,29.5150,-94.5133,1.564,1111122 
TCOON,ioos:station:TCOON:518:1,2017-11-07T13:18:00Z,29.5150,-94.5133,1.534,1111122 
TCOON,ioos:station:TCOON:518:1,2017-11-07T14:18:00Z,29.5150,-94.5133,1.485,1111122 
TCOON,ioos:station:TCOON:518:1,2017-11-07T16:24:00Z,29.5150,-94.5133,1.339,1111122 
TCOON,ioos:station:TCOON:518:1,2017-11-07T17:18:00Z,29.5150,-94.5133,1.274,1111122 
TCOON,ioos:station:TCOON:518:1,2017-11-07T18:48:00Z,29.5150,-94.5133,1.182,1111122 
TCOON,ioos:station:TCOON:518:1,2017-11-07T19:18:00Z,29.5150,-94.5133,1.161,1111122 
TCOON,ioos:station:TCOON:518:1,2017-11-07T20:18:00Z,29.5150,-94.5133,1.134,1111122 
TCOON,ioos:station:TCOON:518:1,2017-11-07T21:24:00Z,29.5150,-94.5133,1.121,1111122 
TCOON,ioos:station:TCOON:518:1,2017-11-07T22:36:00Z,29.5150,-94.5133,1.122,1111122 
TCOON,ioos:station:TCOON:518:1,2017-11-07T23:18:00Z,29.5150,-94.5133,1.181,1111122 
TCOON,ioos:station:TCOON:518:1,2017-11-08T00:18:00Z,29.5150,-94.5133,1.29,1111122 
TCOON,ioos:station:TCOON:518:1,2017-11-08T01:18:00Z,29.5150,-94.5133,1.403,1111122 
TCOON,ioos:station:TCOON:518:1,2017-11-08T02:18:00Z,29.5150,-94.5133,1.491,1111122 
TCOON,ioos:station:TCOON:518:1,2017-11-08T04:06:00Z,29.5150,-94.5133,1.59,1111122 
TCOON,ioos:station:TCOON:518:1,2017-11-08T05:30:00Z,29.5150,-94.5133,1.632,1111122 
TCOON,ioos:station:TCOON:518:1,2017-11-08T06:30:00Z,29.5150,-94.5133,1.649,1111122 
TCOON,ioos:station:TCOON:518:1,2017-11-08T07:30:00Z,29.5150,-94.5133,1.674,1111122 
TCOON,ioos:station:TCOON:518:1,2017-11-08T08:24:00Z,29.5150,-94.5133,1.63,1111122 
TCOON,ioos:station:TCOON:518:1,2017-11-08T09:30:00Z,29.5150,-94.5133,1.682,1111122 
TCOON,ioos:station:TCOON:518:1,2017-11-08T10:18:00Z,29.5150,-94.5133,1.613,1111122 
TCOON,ioos:station:TCOON:518:1,2017-11-08T11:18:00Z,29.5150,-94.5133,1.533,1111122 
TCOON,ioos:station:TCOON:518:1,2017-11-08T12:18:00Z,29.5150,-94.5133,1.494,1111122 
TCOON,ioos:station:TCOON:518:1,2017-11-08T13:18:00Z,29.5150,-94.5133,1.45,1111122 
TCOON,ioos:station:TCOON:518:1,2017-11-08T14:18:00Z,29.5150,-94.5133,1.431,1111122 
TCOON,ioos:station:TCOON:518:1,2017-11-08T15:18:00Z,29.5150,-94.5133,1.375,1111122 
TCOON,ioos:station:TCOON:518:1,2017-11-08T16:18:00Z,29.5150,-94.5133,1.328,1111122 
TCOON,ioos:station:TCOON:518:1,2017-11-08T17:18:00Z,29.5150,-94.5133,1.263,1111122 
TCOON,ioos:station:TCOON:518:1,2017-11-08T18:18:00Z,29.5150,-94.5133,1.188,1111122 
TCOON,ioos:station:TCOON:518:1,2017-11-08T19:18:00Z,29.5150,-94.5133,1.136,1111122 
TCOON,ioos:station:TCOON:518:1,2017-11-08T20:18:00Z,29.5150,-94.5133,1.086,1111122 
TCOON,ioos:station:TCOON:518:1,2017-11-08T21:18:00Z,29.5150,-94.5133,1.054,1111122 
TCOON,ioos:station:TCOON:518:1,2017-11-08T22:18:00Z,29.5150,-94.5133,1.018,1111122 
TCOON,ioos:station:TCOON:518:1,2017-11-08T23:18:00Z,29.5150,-94.5133,1.06,1111122 
TCOON,ioos:station:TCOON:518:1,2017-11-09T00:18:00Z,29.5150,-94.5133,1.105,1111122 
TCOON,ioos:station:TCOON:518:1,2017-11-09T01:18:00Z,29.5150,-94.5133,1.179,1111122 
TCOON,ioos:station:TCOON:518:1,2017-11-09T02:18:00Z,29.5150,-94.5133,1.273,1111122 
TCOON,ioos:station:TCOON:518:1,2017-11-09T03:18:00Z,29.5150,-94.5133,1.325,1111122 
TCOON,ioos:station:TCOON:518:1,2017-11-09T04:18:00Z,29.5150,-94.5133,1.368,1111122 
TCOON,ioos:station:TCOON:518:1,2017-11-09T05:18:00Z,29.5150,-94.5133,1.403,1111122 
TCOON,ioos:station:TCOON:518:1,2017-11-09T06:18:00Z,29.5150,-94.5133,1.469,1111122 
TCOON,ioos:station:TCOON:518:1,2017-11-09T07:18:00Z,29.5150,-94.5133,1.516,1111122 
TCOON,ioos:station:TCOON:518:1,2017-11-09T08:18:00Z,29.5150,-94.5133,1.503,1111122 
TCOON,ioos:station:TCOON:518:1,2017-11-09T09:18:00Z,29.5150,-94.5133,1.535,1111122 
TCOON,ioos:station:TCOON:518:1,2017-11-09T10:18:00Z,29.5150,-94.5133,1.514,1111122 
TCOON,ioos:station:TCOON:518:1,2017-11-09T11:18:00Z,29.5150,-94.5133,1.458,1111122 
TCOON,ioos:station:TCOON:518:1,2017-11-09T12:18:00Z,29.5150,-94.5133,1.447,1111122 
TCOON,ioos:station:TCOON:518:1,2017-11-09T13:18:00Z,29.5150,-94.5133,1.449,1111122 
TCOON,ioos:station:TCOON:518:1,2017-11-09T14:18:00Z,29.5150,-94.5133,1.403,1111122 
TCOON,ioos:station:TCOON:518:1,2017-11-09T15:18:00Z,29.5150,-94.5133,1.381,1111122 
TCOON,ioos:station:TCOON:518:1,2017-11-09T16:18:00Z,29.5150,-94.5133,1.343,1111122 
TCOON,ioos:station:TCOON:518:1,2017-11-09T17:18:00Z,29.5150,-94.5133,1.317,1111122 
TCOON,ioos:station:TCOON:518:1,2017-11-09T18:18:00Z,29.5150,-94.5133,1.25,1111122 
TCOON,ioos:station:TCOON:518:1,2017-11-09T19:18:00Z,29.5150,-94.5133,1.177,1111122 
TCOON,ioos:station:TCOON:518:1,2017-11-09T20:18:00Z,29.5150,-94.5133,1.119,1111122 
TCOON,ioos:station:TCOON:518:1,2017-11-09T21:18:00Z,29.5150,-94.5133,1.135,1111122 
TCOON,ioos:station:TCOON:518:1,2017-11-09T22:18:00Z,29.5150,-94.5133,1.128,1111122 
TCOON,ioos:station:TCOON:518:1,2017-11-09T23:18:00Z,29.5150,-94.5133,1.085,1111122 
TCOON,ioos:station:TCOON:518:1,2017-11-10T00:18:00Z,29.5150,-94.5133,1.047,1111122 
TCOON,ioos:station:TCOON:518:1,2017-11-10T01:18:00Z,29.5150,-94.5133,1.116,1111122 
TCOON,ioos:station:TCOON:518:1,2017-11-10T02:18:00Z,29.5150,-94.5133,1.231,1111122 
TCOON,ioos:station:TCOON:518:1,2017-11-10T03:18:00Z,29.5150,-94.5133,1.285,1111122 
TCOON,ioos:station:TCOON:518:1,2017-11-10T04:18:00Z,29.5150,-94.5133,1.313,1111122 
TCOON,ioos:station:TCOON:518:1,2017-11-10T05:18:00Z,29.5150,-94.5133,1.419,1111122 
TCOON,ioos:station:TCOON:518:1,2017-11-10T06:18:00Z,29.5150,-94.5133,1.502,1111122 
TCOON,ioos:station:TCOON:518:1,2017-11-10T07:18:00Z,29.5150,-94.5133,1.55,1111122 
TCOON,ioos:station:TCOON:518:1,2017-11-10T08:18:00Z,29.5150,-94.5133,1.526,1111122 
TCOON,ioos:station:TCOON:518:1,2017-11-10T09:18:00Z,29.5150,-94.5133,1.515,1111122 
TCOON,ioos:station:TCOON:518:1,2017-11-10T10:18:00Z,29.5150,-94.5133,1.574,1111122 
TCOON,ioos:station:TCOON:518:1,2017-11-10T11:18:00Z,29.5150,-94.5133,1.596,1111122 
TCOON,ioos:station:TCOON:518:1,2017-11-10T12:18:00Z,29.5150,-94.5133,1.533,1111122 
TCOON,ioos:station:TCOON:518:1,2017-11-10T13:18:00Z,29.5150,-94.5133,1.498,1111122 
TCOON,ioos:station:TCOON:518:1,2017-11-10T14:18:00Z,29.5150,-94.5133,1.498,1111122 
TCOON,ioos:station:TCOON:518:1,2017-11-10T15:18:00Z,29.5150,-94.5133,1.471,1111122 
TCOON,ioos:station:TCOON:518:1,2017-11-10T16:18:00Z,29.5150,-94.5133,1.446,1111122 
TCOON,ioos:station:TCOON:518:1,2017-11-10T17:18:00Z,29.5150,-94.5133,1.434,1111122 
TCOON,ioos:station:TCOON:518:1,2017-11-10T18:18:00Z,29.5150,-94.5133,1.405,1111122 
TCOON,ioos:station:TCOON:518:1,2017-11-10T19:18:00Z,29.5150,-94.5133,1.339,1111122 
TCOON,ioos:station:TCOON:518:1,2017-11-10T20:18:00Z,29.5150,-94.5133,1.299,1111122 
TCOON,ioos:station:TCOON:518:1,2017-11-10T21:18:00Z,29.5150,-94.5133,1.249,1111122 
TCOON,ioos:station:TCOON:518:1,2017-11-10T22:18:00Z,29.5150,-94.5133,1.217,1111122 
TCOON,ioos:station:TCOON:518:1,2017-11-10T23:18:00Z,29.5150,-94.5133,1.196,1111122 
TCOON,ioos:station:TCOON:518:1,2017-11-11T00:18:00Z,29.5150,-94.5133,1.18,1111122 
TCOON,ioos:station:TCOON:518:1,2017-11-11T01:18:00Z,29.5150,-94.5133,1.198,1111122 
TCOON,ioos:station:TCOON:518:1,2017-11-11T02:18:00Z,29.5150,-94.5133,1.222,1111122 
TCOON,ioos:station:TCOON:518:1,2017-11-11T03:18:00Z,29.5150,-94.5133,1.304,1111122 
TCOON,ioos:station:TCOON:518:1,2017-11-11T04:18:00Z,29.5150,-94.5133,1.41,1111122 
TCOON,ioos:station:TCOON:518:1,2017-11-11T05:18:00Z,29.5150,-94.5133,1.493,1111122 
TCOON,ioos:station:TCOON:518:1,2017-11-11T06:18:00Z,29.5150,-94.5133,1.472,1111122 
TCOON,ioos:station:TCOON:518:1,2017-11-11T07:18:00Z,29.5150,-94.5133,1.471,1111122 
TCOON,ioos:station:TCOON:518:1,2017-11-11T08:18:00Z,29.5150,-94.5133,1.514,1111122 
TCOON,ioos:station:TCOON:518:1,2017-11-11T09:18:00Z,29.5150,-94.5133,1.59,1111122 
TCOON,ioos:station:TCOON:518:1,2017-11-11T10:18:00Z,29.5150,-94.5133,1.656,1111122 
TCOON,ioos:station:TCOON:518:1,2017-11-11T11:18:00Z,29.5150,-94.5133,1.647,1111122 
TCOON,ioos:station:TCOON:518:1,2017-11-11T12:18:00Z,29.5150,-94.5133,1.638,1111122 
TCOON,ioos:station:TCOON:518:1,2017-11-11T13:18:00Z,29.5150,-94.5133,1.579,1111122 
TCOON,ioos:station:TCOON:518:1,2017-11-11T14:18:00Z,29.5150,-94.5133,1.536,1111122 
TCOON,ioos:station:TCOON:518:1,2017-11-11T15:18:00Z,29.5150,-94.5133,1.499,1111122 
TCOON,ioos:station:TCOON:518:1,2017-11-11T16:18:00Z,29.5150,-94.5133,1.498,1111122 
TCOON,ioos:station:TCOON:518:1,2017-11-11T17:18:00Z,29.5150,-94.5133,1.508,1111122 
TCOON,ioos:station:TCOON:518:1,2017-11-11T18:18:00Z,29.5150,-94.5133,1.522,1111122 
TCOON,ioos:station:TCOON:518:1,2017-11-11T19:18:00Z,29.5150,-94.5133,1.486,1111122 
TCOON,ioos:station:TCOON:518:1,2017-11-11T20:18:00Z,29.5150,-94.5133,1.429,1111122 
TCOON,ioos:station:TCOON:518:1,2017-11-11T21:18:00Z,29.5150,-94.5133,1.362,1111122 
TCOON,ioos:station:TCOON:518:1,2017-11-11T22:18:00Z,29.5150,-94.5133,1.325,1111122 
TCOON,ioos:station:TCOON:518:1,2017-11-11T23:18:00Z,29.5150,-94.5133,1.306,1111122 
TCOON,ioos:station:TCOON:518:1,2017-11-12T00:18:00Z,29.5150,-94.5133,1.316,1111122 
TCOON,ioos:station:TCOON:518:1,2017-11-12T01:18:00Z,29.5150,-94.5133,1.326,1111122 
TCOON,ioos:station:TCOON:518:1,2017-11-12T02:18:00Z,29.5150,-94.5133,1.332,1111122 
TCOON,ioos:station:TCOON:518:1,2017-11-12T03:18:00Z,29.5150,-94.5133,1.355,1111122 
TCOON,ioos:station:TCOON:518:1,2017-11-12T04:18:00Z,29.5150,-94.5133,1.448,1111122 
TCOON,ioos:station:TCOON:518:1,2017-11-12T05:18:00Z,29.5150,-94.5133,1.532,1111122 
TCOON,ioos:station:TCOON:518:1,2017-11-12T06:18:00Z,29.5150,-94.5133,1.59,1111122 
TCOON,ioos:station:TCOON:518:1,2017-11-12T07:18:00Z,29.5150,-94.5133,1.6,1111122 
TCOON,ioos:station:TCOON:518:1,2017-11-12T08:18:00Z,29.5150,-94.5133,1.605,1111122 
TCOON,ioos:station:TCOON:518:1,2017-11-12T09:18:00Z,29.5150,-94.5133,1.633,1111122 
TCOON,ioos:station:TCOON:518:1,2017-11-12T10:18:00Z,29.5150,-94.5133,1.694,1111122 
TCOON,ioos:station:TCOON:518:1,2017-11-12T11:18:00Z,29.5150,-94.5133,1.658,1111122 
TCOON,ioos:station:TCOON:518:1,2017-11-12T12:18:00Z,29.5150,-94.5133,1.594,1111122 
TCOON,ioos:station:TCOON:518:1,2017-11-12T13:18:00Z,29.5150,-94.5133,1.525,1111122 
TCOON,ioos:station:TCOON:518:1,2017-11-12T14:18:00Z,29.5150,-94.5133,1.479,1111122 
TCOON,ioos:station:TCOON:518:1,2017-11-12T15:18:00Z,29.5150,-94.5133,1.437,1111122 
TCOON,ioos:station:TCOON:518:1,2017-11-12T16:18:00Z,29.5150,-94.5133,1.436,1111122 
TCOON,ioos:station:TCOON:518:1,2017-11-12T17:18:00Z,29.5150,-94.5133,1.464,1111122 
TCOON,ioos:station:TCOON:518:1,2017-11-12T18:18:00Z,29.5150,-94.5133,1.502,1111122 
TCOON,ioos:station:TCOON:518:1,2017-11-12T19:18:00Z,29.5150,-94.5133,1.48,1111122 
TCOON,ioos:station:TCOON:518:1,2017-11-12T20:18:00Z,29.5150,-94.5133,1.49,1111122 
TCOON,ioos:station:TCOON:518:1,2017-11-12T21:18:00Z,29.5150,-94.5133,1.466,1111122 
TCOON,ioos:station:TCOON:518:1,2017-11-12T22:18:00Z,29.5150,-94.5133,1.428,1111122 